Date String (YYYY-MM-DD hh:mm:ss) UTC,Instrument flags,absolute air pressure of the measurement (hPa),sample flow rate (lpm),inlet stack bypass flow (lpm),air temperature of the measurement (°C),ambient temperature measured by the external sensor (°C),aerosol sample conditioner tube jacket temperature (°C),OPC LED temperature (°C),internal box temperature (°C),relative humidity of the measurement (%),span deviation,mass concentration of particles derived from Lorenz-Mie calculation of OPC scattering (μg/m³),mass concentration of particles derived from Lorenz-Mie calculation of OPC scattering (μg/m³),mass concentration of particles derived from Lorenz-Mie calculation of OPC scattering (μg/m³)
DateTimeUTC,F1_M11,P_M11,Q1_M11,Q2_M11,T1_M11,T2_M11,T3_M11,T4_M11,T5_M11,U1_M11,ZSPAN_M11,X0_M11,X2_M11,X1_M11
2023-09-06 02:00:00,SystemResetWarning,0834.8,5.00,000.00,028.1,024.1,000.0,036.4,029.2,26.5,0001.9,0019.28,0009.79,0008.92
2023-09-06 02:01:00,SystemResetWarning,0835.0,5.00,000.00,028.0,023.9,000.0,036.4,029.1,26.6,0002.0,0019.92,0009.93,0009.05
2023-09-06 02:02:00,SystemResetWarning,0835.3,5.02,000.00,027.9,024.2,000.0,036.4,029.1,26.9,0001.9,0019.64,0009.99,0009.15
2023-09-06 02:03:00,SystemResetWarning,0835.3,5.00,000.00,027.9,024.6,000.0,036.3,029.2,27.0,0001.8,0018.92,0010.05,0009.20
2023-09-06 02:04:00,SystemResetWarning,0834.9,5.00,000.00,027.8,025.1,000.0,036.3,029.3,26.9,0001.7,0017.93,0010.06,0009.20
2023-09-06 02:05:00,SystemResetWarning,0834.9,5.00,000.00,027.9,025.5,000.0,036.3,029.4,26.9,0001.8,0016.85,0009.93,0009.18
2023-09-06 02:06:00,SystemResetWarning,0835.0,5.00,000.00,027.9,025.9,000.0,036.3,029.5,26.8,0002.1,0016.50,0009.93,0009.22
2023-09-06 02:07:00,SystemResetWarning,0834.9,5.00,000.00,027.9,026.2,000.0,036.3,029.6,26.8,0002.1,0016.56,0010.01,0009.29
2023-09-06 02:08:00,SystemResetWarning,0835.0,5.00,000.00,028.0,026.5,000.0,036.3,029.6,26.7,0002.2,0017.65,0010.05,0009.32
2023-09-06 02:09:00,SystemResetWarning,0835.0,5.00,000.00,028.0,026.7,000.0,036.4,029.7,26.7,0002.3,0017.91,0010.04,0009.30
2023-09-06 02:10:00,SystemResetWarning,0835.0,5.00,000.00,028.1,026.9,000.0,036.4,029.8,26.6,0002.3,0017.68,0010.00,0009.26
2023-09-06 02:11:00,SystemResetWarning,0835.0,5.00,000.00,028.1,027.0,000.0,036.4,029.8,26.6,0002.5,0017.28,0009.94,0009.20
2023-09-06 02:12:00,SystemResetWarning,0835.1,5.00,000.00,028.2,027.2,000.0,036.4,029.9,26.4,0002.3,0016.75,0009.90,0009.14
2023-09-06 02:13:00,SystemResetWarning,0835.1,5.00,000.00,028.2,027.3,000.0,036.5,030.0,26.4,0002.5,0016.81,0009.86,0009.09
2023-09-06 02:14:00,SystemResetWarning,0835.1,5.00,000.00,028.3,027.4,000.0,036.5,030.0,26.3,0002.5,0016.78,0009.82,0009.07
2023-09-06 02:15:00,SystemResetWarning,0835.1,5.00,000.00,028.3,027.5,000.0,036.5,030.1,26.2,0002.3,0017.55,0009.87,0009.12
2023-09-06 02:16:00,SystemResetWarning,0835.2,4.99,000.00,028.3,026.7,000.0,036.5,029.9,26.2,0002.1,0018.12,0010.03,0009.26
2023-09-06 02:17:00,SystemResetWarning,0835.1,5.00,000.00,028.2,025.1,000.0,036.5,029.6,26.3,0001.9,0018.53,0010.11,0009.31
2023-09-06 02:18:00,SystemResetWarning,0835.2,5.01,000.00,028.2,024.7,000.0,036.4,029.4,26.4,0001.9,0018.17,0010.08,0009.32
2023-09-06 02:19:00,SystemResetWarning,0835.1,5.01,000.00,028.1,024.9,000.0,036.4,029.4,26.5,0001.7,0017.16,0010.09,0009.32
2023-09-06 02:20:00,SystemResetWarning,0835.2,5.00,000.00,028.1,025.3,000.0,036.4,029.4,26.6,0001.6,0016.93,0010.12,0009.37
2023-09-06 02:21:00,SystemResetWarning,0835.2,5.00,000.00,028.1,025.7,000.0,036.4,029.5,26.6,0001.6,0017.06,0010.20,0009.46
2023-09-06 02:22:00,SystemResetWarning,0835.2,5.00,000.00,028.1,026.0,000.0,036.4,029.6,26.6,0001.6,0017.81,0010.35,0009.57
2023-09-06 02:23:00,SystemResetWarning,0835.3,5.00,000.00,028.1,026.3,000.0,036.5,029.7,26.5,0001.7,0018.41,0010.46,0009.69
2023-09-06 02:24:00,SystemResetWarning,0835.3,4.99,000.00,028.1,026.6,000.0,036.5,029.8,26.5,0001.6,0018.82,0010.61,0009.82
2023-09-06 02:25:00,SystemResetWarning,0835.3,4.99,000.00,028.2,026.8,000.0,036.5,029.8,26.4,0001.5,0019.34,0010.69,0009.90
2023-09-06 02:26:00,SystemResetWarning,0835.3,4.99,000.00,028.2,027.0,000.0,036.5,029.9,26.3,0001.4,0019.03,0010.80,0010.00
2023-09-06 02:27:00,SystemResetWarning,0835.2,4.99,000.00,028.3,027.1,000.0,036.6,030.0,26.2,0001.3,0018.83,0010.84,0010.03
2023-09-06 02:28:00,SystemResetWarning,0835.2,5.00,000.00,028.3,027.3,000.0,036.6,030.0,26.2,0001.3,0018.64,0010.86,0010.06
2023-09-06 02:29:00,SystemResetWarning,0835.2,5.00,000.00,028.4,027.4,000.0,036.6,030.1,26.1,0001.3,0019.22,0010.95,0010.12
2023-09-06 02:30:00,SystemResetWarning,0835.2,4.99,000.00,028.4,026.4,000.0,036.6,029.8,26.1,0001.3,0019.27,0011.01,0010.18
2023-09-06 02:31:00,SystemResetWarning,0835.3,5.00,000.00,028.2,025.0,000.0,036.5,029.5,26.2,0001.6,0019.34,0011.06,0010.23
2023-09-06 02:32:00,SystemResetWarning,0835.2,5.00,000.00,028.2,024.8,000.0,036.5,029.4,26.3,0001.5,0019.12,0011.13,0010.31
2023-09-06 02:33:00,SystemResetWarning,0835.3,5.02,000.00,028.1,025.0,000.0,036.5,029.4,26.5,0001.4,0018.86,0011.23,0010.39
2023-09-06 02:34:00,SystemResetWarning,0835.2,5.00,000.00,028.0,025.3,000.0,036.5,029.4,26.5,0001.3,0018.39,0011.24,0010.42
2023-09-06 02:35:00,SystemResetWarning,0835.2,5.00,000.00,028.1,025.7,000.0,036.5,029.5,26.5,0001.3,0018.04,0011.28,0010.47
2023-09-06 02:36:00,SystemResetWarning,0835.3,5.00,000.00,028.1,026.0,000.0,036.5,029.6,26.5,0001.4,0018.06,0011.40,0010.56
2023-09-06 02:37:00,SystemResetWarning,0835.3,5.00,000.00,028.1,026.3,000.0,036.5,029.7,26.5,0001.5,0017.87,0011.47,0010.66
2023-09-06 02:38:00,SystemResetWarning,0835.3,4.99,000.00,028.1,026.6,000.0,036.5,029.8,26.4,0001.6,0017.82,0011.52,0010.73
2023-09-06 02:39:00,SystemResetWarning,0835.4,5.00,000.00,028.2,026.8,000.0,036.5,029.8,26.4,0001.7,0017.71,0011.58,0010.79
2023-09-06 02:40:00,SystemResetWarning,0835.4,5.00,000.00,028.2,027.0,000.0,036.5,029.9,26.3,0001.8,0018.44,0011.65,0010.89
2023-09-06 02:41:00,SystemResetWarning,0835.4,5.01,000.00,028.3,027.2,000.0,036.6,030.0,26.2,0001.7,0019.73,0011.75,0011.02
2023-09-06 02:42:00,SystemResetWarning,0835.4,4.99,000.00,028.3,027.3,000.0,036.6,030.0,26.1,0001.7,0019.93,0011.89,0011.18
2023-09-06 02:43:00,SystemResetWarning,0835.4,4.99,000.00,028.4,027.3,000.0,036.6,030.1,26.0,0001.8,0020.63,0011.97,0011.25
2023-09-06 02:44:00,SystemResetWarning,0835.4,5.00,000.00,028.3,026.1,000.0,036.6,029.8,26.0,0001.8,0020.80,0012.04,0011.32
2023-09-06 02:45:00,SystemResetWarning,0835.4,5.00,000.00,028.2,024.9,000.0,036.5,029.5,26.2,0002.0,0021.06,0012.09,0011.37
2023-09-06 02:46:00,SystemResetWarning,0835.3,5.01,000.00,028.1,024.8,000.0,036.5,029.4,26.3,0002.0,0021.41,0012.18,0011.44
2023-09-06 02:47:00,SystemResetWarning,0835.3,5.01,000.00,028.1,025.0,000.0,036.5,029.4,26.5,0001.8,0022.29,0012.21,0011.49
2023-09-06 02:48:00,SystemResetWarning,0835.4,5.00,000.00,028.0,025.4,000.0,036.5,029.4,26.5,0001.6,0022.81,0012.25,0011.53
2023-09-06 02:49:00,SystemResetWarning,0835.4,5.00,000.00,028.1,025.7,000.0,036.5,029.5,26.5,0001.6,0022.91,0012.29,0011.55
2023-09-06 02:50:00,SystemResetWarning,0835.5,5.00,000.00,028.1,026.1,000.0,036.5,029.6,26.6,0001.4,0023.25,0012.39,0011.63
2023-09-06 02:51:00,SystemResetWarning,0835.5,5.00,000.00,028.1,026.4,000.0,036.5,029.7,26.4,0001.2,0022.74,0012.52,0011.72
2023-09-06 02:52:00,SystemResetWarning,0835.5,5.00,000.00,028.1,026.6,000.0,036.5,029.8,26.4,0001.2,0022.45,0012.62,0011.75
2023-09-06 02:53:00,SystemResetWarning,0835.5,5.00,000.00,028.2,026.8,000.0,036.5,029.9,26.4,0001.2,0022.24,0012.66,0011.74
2023-09-06 02:54:00,SystemResetWarning,0835.5,5.00,000.00,028.2,027.0,000.0,036.6,029.9,26.3,0001.0,0022.65,0012.71,0011.76
2023-09-06 02:55:00,SystemResetWarning,0835.5,5.00,000.00,028.3,027.1,000.0,036.6,030.0,26.1,0000.8,0022.81,0012.74,0011.78
2023-09-06 02:56:00,SystemResetWarning,0835.5,5.00,000.00,028.3,027.3,000.0,036.6,030.0,26.1,0000.7,0023.13,0012.81,0011.83
2023-09-06 02:57:00,SystemResetWarning,0835.5,5.00,000.00,028.4,027.4,000.0,036.6,030.1,26.0,0000.7,0022.85,0012.84,0011.85
2023-09-06 02:58:00,SystemResetWarning,0835.5,5.00,000.00,028.4,027.4,000.0,036.7,030.1,26.0,0000.9,0021.96,0012.91,0011.89
2023-09-06 02:59:00,SystemResetWarning,0835.5,4.98,000.00,028.4,026.1,000.0,036.6,029.7,26.0,0001.3,0021.66,0012.98,0011.93
